Location: Julian California
(33.0790°N, 116.6010°W)
Time: 01:56:15
(UTC-07:00)

H-2A R/B - Pass Details

Date: 12 July 2018
Orbit: 734 x 837 km, 98.3° (Epoch: 19 September)

Event Time Altitude Azimuth Distance (km) Brightness Sun altitude
Exits shadow 22:50:52 17° 235° (SW) 1,963 4.0 -27.9°
Maximum altitude 22:52:59 22° 265° (W) 1,760 4.1 -28.2°
Drops below altitude 10° 22:57:06 10° 315° (NW) 2,448 5.5 -28.6°
Sets 23:00:01 0° 330° (NNW) 3,382 6.6 -28.9°
